Location: Laguna de la Cañada del Gallo
(40.3974°N, 5.2096°W)
Time: 11:37:39
(UTC+00:00)

Cosmos 1656 - Pass Details

Date: 18 April 2024
Orbit: 799 x 847 km, 71.1° (Epoch: 21 May)

Event Time Altitude Azimuth Distance (km) Brightness Sun altitude
Rises 20:32:41 0° 192° (SSW) 3,364 6.6 -16.4°
Reaches altitude 10° 20:35:09 10° 189° (S) 2,427 5.9 -16.8°
Maximum altitude 20:40:37 63° 109° (ESE) 919 3.6 -17.7°
Drops below altitude 10° 20:46:04 10° 30° (NNE) 2,411 6.1 -18.6°
Sets 20:48:30 0° 27° (NNE) 3,339 6.9 -18.9°
